Location: Macksville High School
(37.9611°N, 99.9654°W)
Time: 00:56:04
(UTC+00:00)

Cosmos 2084 - Pass Details

Date: 17 January 2021
Orbit: 553 x 629 km, 62.8° (Epoch: 07 March)

Event Time Altitude Azimuth Distance (km) Brightness Sun altitude
Exits shadow 12:16:56 40° 251° (WSW) 842 3.8 -18.8°
Maximum altitude 12:18:08 57° 306° (NW) 679 3.4 -18.6°
Drops below altitude 10° 12:22:22 10° 26° (NNE) 1,907 6.2 -17.8°
Sets 12:24:41 0° 30° (NNE) 2,825 7.2 -17.4°
